Temperature
-6 -6 -6 -6 -6 -5 -5 -5 -4 -4 -3 -2 -0 1 2 3 3 4 4 4 4 5 5 5 5 5 5 5 6 6 6 6 6 6 7 7 7 7 7 7 7 7 7
-7 -7 -7 -6 -6 -5 -5 -5 -4 -3 -2 -1 -0 1 1 2 2 3 3 3 3 4 4 4 4 4 4 4 5 5 5 5 5 6 6 6 6 6 6 6 6 6 6
-8 -8 -7 -7 -6 -6 -6 -5 -5 -4 -3 -2 -1 -0 0 1 1 2 2 2 2 2 3 3 3 2 2 3 3 4 4 4 5 5 5 6 6 6 6 6 6 6 6
-9 -9 -8 -8 -7 -7 -6 -6 -5 -5 -4 -3 -2 -2 -1 -1 -0 -0 0 0 1 1 1 1 1 1 1 1 2 2 3 3 4 4 4 5 5 5 5 5 5 5 5
-9 -9 -9 -8 -8 -7 -7 -7 -6 -6 -5 -4 -4 -3 -3 -3 -2 -2 -2 -1 -1 -1 -1 -1 -1 -0 -0 0 1 1 1 2 2 3 3 4 4 4 4 5 5 4 4
-10 -10 -9 -9 -9 -8 -8 -8 -7 -7 -6 -5 -5 -5 -5 -4 -4 -4 -3 -3 -3 -3 -3 -2 -2 -2 -2 -1 -1 -1 -0 0 1 2 2 3 3 3 3 4 4 4 3
-10 -10 -10 -10 -10 -9 -9 -9 -8 -8 -7 -7 -7 -6 -6 -6 -6 -5 -5 -5 -5 -5 -5 -5 -4 -4 -3 -3 -2 -2 -2 -2 -1 -0 0 1 1 2 2 2 3 2 2
-10 -10 -11 -10 -10 -10 -10 -9 -9 -9 -8 -8 -8 -8 -7 -7 -6 -7 -7 -7 -7 -7 -6 -6 -6 -6 -5 -5 -4 -4 -4 -3 -3 -2 -2 -1 -1 -0 0 1 1 1 1
-11 -11 -11 -11 -11 -11 -10 -10 -10 -9 -9 -9 -9 -9 -9 -8 -7 -8 -8 -8 -8 -7 -7 -8 -7 -7 -7 -6 -6 -5 -5 -5 -5 -5 -4 -4 -3 -2 -2 -1 -1 -1 -1
-12 -12 -12 -12 -12 -12 -11 -11 -11 -10 -10 -9 -9 -9 -9 -9 -9 -8 -8 -8 -8 -8 -8 -8 -8 -9 -8 -8 -7 -6 -6 -6 -6 -6 -6 -5 -5 -5 -4 -4 -3 -3 -3
-13 -13 -13 -13 -13 -13 -12 -12 -12 -11 -11 -10 -10 -10 -10 -9 -9 -9 -9 -9 -9 -9 -9 -9 -9 -9 -9 -9 -9 -8 -8 -7 -7 -7 -7 -7 -7 -6 -6 -6 -5 -5 -5
-14 -14 -14 -14 -14 -14 -13 -13 -12 -12 -12 -11 -11 -11 -10 -10 -10 -9 -9 -9 -9 -9 -10 -10 -10 -10 -10 -10 -9 -9 -9 -8 -8 -8 -8 -8 -8 -7 -7 -7 -6 -6 -6
-14 -15 -15 -15 -15 -15 -14 -14 -13 -13 -12 -12 -12 -12 -12 -11 -11 -10 -10 -10 -10 -10 -10 -10 -10 -10 -10 -10 -10 -10 -9 -9 -9 -9 -9 -9 -8 -8 -8 -8 -7 -7 -7
-15 -15 -15 -15 -15 -15 -15 -15 -14 -14 -13 -13 -13 -13 -13 -12 -12 -12 -11 -11 -11 -10 -10 -10 -11 -11 -11 -11 -11 -11 -11 -10 -10 -10 -10 -10 -10 -9 -9 -9 -8 -8 -8
-15 -15 -15 -15 -15 -15 -15 -15 -15 -15 -14 -14 -14 -13 -13 -13 -12 -12 -12 -11 -11 -11 -11 -11 -11 -12 -12 -12 -12 -12 -12 -12 -12 -12 -11 -11 -11 -11 -10 -10 -10 -9 -9
-15 -15 -16 -15 -16 -16 -15 -15 -15 -15 -15 -15 -14 -14 -14 -13 -13 -13 -12 -12 -12 -12 -12 -12 -12 -13 -13 -13 -13 -13 -13 -13 -13 -13 -13 -12 -12 -12 -12 -11 -11 -11 -10
-15 -15 -15 -15 -15 -16 -16 -15 -15 -15 -15 -15 -15 -15 -14 -14 -14 -14 -14 -13 -13 -13 -13 -13 -13 -14 -14 -14 -14 -14 -14 -14 -14 -14 -14 -14 -14 -13 -13 -13 -12 -12 -12
-15 -15 -15 -15 -15 -15 -15 -15 -15 -15 -15 -15 -15 -15 -15 -15 -15 -15 -15 -14 -14 -14 -14 -14 -14 -14 -14 -15 -15 -15 -15 -15 -15 -15 -15 -15 -15 -14 -14 -14 -14 -13 -13
-14 -14 -14 -15 -15 -15 -15 -15 -15 -15 -15 -15 -15 -15 -15 -15 -15 -15 -15 -15 -15 -15 -15 -15 -15 -15 -15 -15 -15 -15 -15 -16 -16 -16 -16 -16 -16 -15 -15 -15 -15 -14 -14
-14 -14 -14 -14 -14 -15 -15 -15 -15 -15 -15 -15 -15 -15 -15 -15 -15 -15 -15 -16 -16 -16 -16 -16 -16 -16 -16 -16 -16 -16 -16 -16 -16 -16 -16 -16 -16 -16 -15 -15 -15 -15 -15
-13 -14 -14 -14 -15 -15 -15 -16 -15 -15 -15 -15 -15 -15 -15 -15 -15 -15 -15 -15 -15 -16 -16 -16 -16 -16 -16 -16 -16 -16 -16 -16 -16 -16 -16 -16 -16 -16 -16 -15 -15 -15 -15
-13 -14 -14 -14 -15 -15 -16 -16 -16 -16 -16 -16 -15 -15 -15 -15 -15 -15 -15 -15 -15 -15 -16 -16 -16 -16 -16 -16 -16 -16 -16 -16 -16 -16 -16 -16 -16 -16 -16 -15 -15 -15 -15
-13 -13 -13 -13 -14 -15 -15 -15 -16 -16 -16 -16 -16 -16 -15 -15 -15 -15 -15 -15 -15 -15 -15 -16 -16 -16 -16 -16 -16 -16 -16 -16 -16 -16 -16 -16 -15 -15 -15 -15 -15 -14 -14
-11 -12 -12 -13 -13 -14 -14 -14 -15 -15 -15 -16 -16 -16 -15 -15 -15 -15 -15 -15 -15 -15 -15 -15 -16 -16 -16 -16 -16 -16 -16 -16 -16 -15 -15 -15 -15 -15 -14 -14 -14 -14 -14
-10 -11 -12 -12 -13 -14 -14 -14 -14 -14 -14 -15 -15 -15 -15 -15 -15 -15 -15 -15 -15 -15 -15 -15 -15 -15 -15 -15 -15 -15 -15 -15 -15 -15 -15 -15 -14 -14 -14 -14 -14 -14 -14
-10 -11 -12 -12 -13 -13 -13 -13 -13 -13 -14 -14 -15 -15 -15 -15 -15 -15 -15 -15 -15 -15 -15 -15 -15 -15 -15 -15 -15 -15 -15 -15 -14 -14 -14 -14 -14 -14 -14 -14 -14 -14 -14
Wind_Speed
21 20 19 18 18 18 18 20 20 19 20 19 17 13 10 7 6 7 6 5 6 5 5 5 3 2 1 1 1 3 4 4 5 4 3 2 4 5 5 7 10 11 11
20 20 19 19 19 18 19 21 21 21 19 17 14 9 5 3 3 5 7 6 6 6 6 6 4 3 3 2 1 2 2 4 5 6 4 3 4 4 5 5 4 8 8
20 19 19 19 19 19 19 20 22 22 20 16 13 10 7 6 5 6 6 7 6 6 6 6 5 4 3 3 3 3 1 1 3 5 4 3 2 2 4 4 5 4 6
18 18 18 18 19 18 18 19 20 20 20 18 15 13 12 11 11 10 10 9 8 8 8 7 6 5 5 4 4 4 3 2 1 3 3 2 2 2 4 5 4 3 4
17 16 15 15 16 17 17 18 17 18 18 18 17 16 14 12 13 13 12 12 11 10 10 9 8 9 8 7 6 4 4 3 2 2 2 2 2 2 3 3 4 4 4
16 15 15 15 15 16 15 15 16 15 15 16 16 16 16 13 18 20 14 12 11 10 9 9 9 11 12 12 11 10 9 6 3 2 2 2 3 3 2 2 4 4 3
16 16 15 15 15 15 16 15 14 14 12 12 13 14 14 16 18 16 14 9 8 8 8 8 7 8 9 7 8 10 11 13 10 5 4 4 3 4 3 3 3 3 3
15 16 16 15 15 15 15 15 13 11 10 9 9 10 11 14 16 12 11 7 7 8 8 8 8 8 8 7 7 9 9 9 9 7 5 4 3 3 4 3 2 4 5
15 16 16 14 14 14 15 14 11 11 10 9 6 7 8 12 16 13 11 6 6 7 7 7 7 7 11 11 8 8 9 8 11 13 13 11 8 7 4 3 2 3 3
15 15 15 14 13 12 14 13 11 10 11 11 10 9 9 9 15 14 12 6 5 5 6 7 9 8 10 11 7 6 7 6 7 9 12 14 13 14 15 8 4 3 3
15 14 14 14 13 11 12 11 11 10 10 11 11 11 12 14 16 17 12 5 4 4 4 4 5 8 9 10 8 6 8 7 7 8 8 8 8 8 8 8 8 5 3
14 15 14 13 13 13 12 12 11 10 9 8 8 9 9 10 14 16 18 11 4 2 1 2 4 8 9 10 9 12 12 9 6 7 7 7 7 6 6 6 9 8 6
14 14 13 14 12 12 11 10 10 9 9 7 6 7 8 8 10 17 18 16 11 2 1 1 5 9 9 9 12 13 11 7 6 7 6 6 5 5 6 5 7 7 7
13 12 12 10 11 11 11 11 10 10 10 10 9 8 7 7 7 7 7 7 8 5 3 3 5 8 8 9 9 8 7 6 7 6 5 4 5 5 6 5 4 5 3
11 11 11 10 9 8 10 9 11 8 12 11 8 8 8 7 11 15 11 5 2 1 3 3 2 3 4 4 4 5 5 5 5 4 4 4 5 5 5 5 3 3 2
12 11 10 8 7 8 7 8 14 15 18 18 17 14 11 14 16 17 18 14 7 4 5 4 3 3 3 2 3 3 3 3 3 3 3 3 3 3 3 3 3 2 2
11 12 9 10 8 8 9 8 8 11 15 16 17 17 16 16 16 15 15 15 14 11 6 4 3 2 1 1 1 1 1 1 1 1 1 1 1 2 3 3 3 3 4
11 14 13 8 7 6 7 7 7 8 8 7 11 15 15 14 14 13 12 10 8 8 5 4 3 2 1 1 2 2 2 2 1 1 1 1 2 2 2 2 3 3 5
13 11 11 9 7 7 7 7 7 8 7 7 6 8 12 10 10 10 9 5 4 4 4 4 3 3 3 2 2 2 3 3 3 3 3 3 3 3 3 4 4 7 5
12 21 19 13 9 9 9 9 8 8 8 7 6 6 6 5 2 2 2 1 1 2 2 3 3 3 3 3 3 3 3 3 3 4 4 4 4 4 5 5 5 5 4
13 16 23 18 12 12 11 10 10 9 8 8 7 9 12 4 3 3 3 3 3 3 3 4 4 4 4 3 3 4 4 4 4 5 5 5 5 5 5 5 6 6 6
14 15 14 14 13 12 12 11 10 10 10 10 9 9 13 6 4 4 4 4 4 4 4 4 4 4 4 4 4 5 5 5 5 5 6 6 6 6 6 6 6 6 6
14 14 14 14 13 16 15 11 11 11 11 10 10 9 8 6 5 5 5 5 4 4 4 4 4 5 5 7 7 5 5 6 6 6 6 6 7 7 7 8 9 9 9
14 14 15 15 14 13 13 13 12 11 11 11 10 9 8 6 6 6 5 5 4 4 5 5 5 6 8 8 9 10 11 12 13 11 10 10 10 10 9 10 10 11 11
14 14 15 15 15 15 14 14 13 12 11 10 9 9 7 6 5 5 5 5 5 5 5 6 6 7 9 10 11 12 14 17 18 16 13 10 13 13 12 12 12 11 11
15 16 15 15 15 15 15 14 12 11 9 8 7 7 6 5 4 4 4 4 4 4 4 5 7 9 11 12 13 16 18 19 20 21 13 6 8 8 9 10 12 12 12
Wind_Direction
346 344 343 341 336 333 333 330 324 317 311 306 299 286 261 223 177 149 135 124 114 105 97 89 67 42 37 38 161 172 177 165 189 232 234 231 182 178 169 172 168 154 161
344 343 343 342 338 338 342 342 338 331 323 318 315 300 272 237 181 150 142 134 126 112 99 90 67 62 56 33 72 137 174 182 181 207 221 198 194 184 165 158 150 150 151
344 344 345 344 341 344 348 350 350 347 344 342 348 4 17 32 52 69 89 94 95 97 97 96 87 92 85 66 66 69 68 154 173 185 204 185 161 133 125 109 111 106 118
341 343 345 345 345 348 350 352 355 356 358 1 12 23 29 35 43 53 61 64 65 66 71 77 85 105 111 95 71 52 50 61 106 156 157 132 105 82 130 135 119 93 89
338 337 339 342 343 346 349 351 355 0 4 8 16 25 32 38 44 49 49 50 46 45 44 45 51 68 92 91 83 60 53 54 55 85 108 114 103 96 132 135 135 119 66
339 338 339 343 345 345 346 349 352 358 4 10 16 20 26 36 49 54 57 52 48 43 37 32 37 39 42 49 66 69 69 64 54 50 56 92 75 48 69 113 131 139 134
342 341 341 344 346 347 348 349 350 352 358 7 13 16 15 18 36 48 60 66 65 58 48 42 40 37 39 26 41 58 60 65 64 62 58 55 61 28 43 75 82 95 99
344 344 342 344 345 347 349 350 346 345 350 358 7 10 6 4 19 40 57 68 76 70 60 50 42 28 39 42 59 65 58 54 67 69 81 76 71 49 47 57 62 89 84
345 343 342 342 345 350 349 348 346 347 350 346 351 359 1 0 15 40 53 49 65 66 60 54 46 26 42 55 62 69 61 44 54 72 76 76 84 92 96 82 76 102 100
342 339 340 342 342 350 351 346 346 351 357 1 7 11 8 5 11 28 44 39 53 62 47 29 32 39 53 59 51 61 69 53 60 75 69 62 58 58 59 53 50 77 97
340 340 341 343 341 349 348 347 345 350 356 3 10 14 15 13 9 10 30 52 57 75 56 18 4 32 48 54 55 56 78 77 75 80 73 63 55 50 46 44 43 47 67
340 341 340 343 348 351 343 345 347 349 347 350 358 4 4 1 359 356 7 21 51 81 69 358 15 48 49 50 59 61 62 65 68 73 69 59 52 46 40 40 41 42 46
341 341 341 348 348 348 344 345 346 351 347 345 352 356 353 352 348 352 355 358 8 34 227 135 75 67 58 47 58 56 53 52 61 67 63 53 42 41 37 30 25 22 26
341 340 344 350 348 345 349 351 351 352 352 2 359 351 341 341 338 337 338 340 350 14 41 38 59 78 72 65 58 51 46 62 67 59 49 36 32 38 36 25 19 13 20
337 337 338 346 339 338 343 345 349 344 354 359 353 349 346 338 343 354 356 337 317 11 86 60 53 66 73 73 70 64 59 62 65 59 49 39 35 30 22 13 10 16 14
340 337 334 337 336 337 331 337 344 349 352 355 353 353 350 350 356 3 7 8 11 74 85 64 65 76 87 84 77 65 62 80 81 73 65 44 29 13 4 358 1 355 330
326 327 323 328 326 330 331 328 325 332 342 348 349 349 350 355 2 5 13 21 36 55 56 49 46 55 83 116 128 129 118 107 116 98 90 45 348 347 347 345 345 337 319
316 316 317 306 300 301 307 308 309 312 316 319 332 340 345 356 5 7 18 27 30 38 35 28 10 351 313 228 204 196 201 213 209 203 219 256 280 294 305 310 311 304 308
314 308 303 296 286 289 295 295 294 295 298 300 303 317 334 347 5 12 24 26 24 24 18 13 4 351 333 302 261 238 227 233 238 236 244 253 257 258 268 276 276 297 304
305 305 308 300 294 297 294 290 288 284 285 284 285 286 296 299 289 326 343 320 340 328 324 324 324 325 324 310 288 267 254 252 250 245 249 252 253 250 256 261 260 263 264
301 302 304 302 298 295 290 284 280 276 273 276 273 279 287 260 233 254 264 258 250 258 266 274 280 288 290 287 277 267 259 255 251 247 248 249 248 250 252 253 256 258 261
301 302 305 306 306 303 297 288 281 276 273 274 273 276 284 274 240 248 252 255 254 250 246 247 254 257 255 254 255 254 254 253 251 247 247 249 248 251 253 255 257 258 260
314 317 319 315 311 308 307 297 287 279 273 268 267 267 265 254 244 244 248 251 253 256 255 248 253 259 260 256 249 238 240 248 248 242 244 250 252 252 251 253 256 258 261
331 325 319 316 314 310 304 297 289 279 272 265 259 256 251 242 239 244 245 251 254 255 258 256 255 259 269 272 267 260 254 256 255 250 242 246 252 256 255 255 256 256 255
330 327 324 320 318 314 309 302 293 281 270 261 254 248 243 236 227 229 235 245 256 261 263 264 264 269 277 280 278 275 278 280 276 265 249 246 250 251 254 254 254 254 251
333 331 329 327 327 327 326 322 314 302 280 259 245 235 229 227 225 224 230 242 255 264 268 270 270 274 280 284 286 289 292 291 290 289 283 261 257 256 253 254 252 252 251
Height
1474 1468 1461 1455 1449 1444 1437 1429 1420 1412 1405 1399 1395 1393 1393 1394 1396 1397 1400 1403 1406 1408 1410 1413 1415 1418 1420 1423 1425 1427 1429 1431 1434 1437 1441 1443 1445 1448 1450 1453 1456 1458 1461
1474 1467 1461 1454 1449 1442 1435 1427 1418 1410 1402 1396 1391 1389 1388 1390 1391 1392 1394 1398 1401 1404 1405 1407 1410 1413 1415 1418 1420 1422 1424 1426 1429 1432 1436 1439 1441 1444 1447 1450 1453 1455 1458
1473 1466 1460 1454 1448 1441 1434 1427 1419 1410 1402 1395 1391 1387 1387 1387 1387 1388 1391 1393 1396 1399 1401 1402 1405 1408 1410 1413 1414 1416 1418 1421 1424 1427 1430 1433 1436 1439 1443 1446 1448 1451 1454
1473 1466 1460 1453 1447 1442 1435 1428 1421 1413 1405 1398 1393 1389 1387 1386 1385 1386 1388 1390 1392 1394 1396 1398 1401 1403 1406 1408 1409 1410 1412 1415 1418 1421 1424 1427 1430 1433 1437 1440 1443 1446 1449
1473 1466 1460 1453 1448 1442 1436 1430 1423 1417 1410 1403 1398 1394 1391 1389 1387 1387 1387 1389 1391 1392 1393 1395 1398 1400 1402 1403 1405 1406 1408 1410 1413 1415 1419 1422 1424 1428 1431 1434 1437 1440 1443
1473 1466 1460 1453 1447 1441 1436 1431 1425 1420 1414 1409 1403 1399 1396 1394 1392 1390 1390 1391 1391 1392 1393 1394 1396 1398 1399 1400 1401 1402 1404 1406 1408 1411 1414 1416 1419 1422 1426 1428 1431 1434 1436
1474 1467 1460 1454 1448 1442 1437 1432 1426 1422 1417 1412 1408 1404 1401 1399 1397 1395 1393 1393 1394 1394 1395 1395 1396 1397 1398 1398 1399 1400 1401 1403 1405 1407 1409 1411 1414 1417 1420 1423 1425 1427 1429
1474 1467 1461 1455 1449 1444 1438 1433 1428 1423 1419 1415 1411 1407 1404 1402 1400 1398 1397 1396 1396 1396 1396 1397 1398 1398 1398 1398 1399 1399 1401 1402 1403 1405 1406 1408 1410 1412 1415 1418 1420 1423 1424
1473 1467 1461 1456 1450 1445 1439 1434 1430 1425 1420 1416 1413 1410 1407 1405 1403 1401 1399 1398 1398 1398 1399 1399 1398 1398 1398 1398 1399 1399 1400 1401 1402 1404 1405 1406 1408 1410 1412 1415 1417 1419 1420
1472 1467 1461 1456 1451 1445 1440 1436 1431 1427 1422 1418 1415 1412 1409 1407 1406 1404 1402 1401 1401 1401 1401 1401 1400 1399 1398 1397 1398 1399 1400 1401 1402 1403 1405 1406 1407 1408 1410 1412 1413 1416 1417
1472 1466 1461 1455 1450 1446 1441 1436 1431 1427 1423 1420 1416 1413 1411 1409 1408 1407 1405 1403 1403 1403 1402 1402 1401 1400 1399 1398 1398 1399 1399 1401 1401 1403 1404 1406 1407 1408 1409 1410 1411 1413 1414
1471 1465 1460 1455 1450 1445 1440 1435 1431 1428 1424 1420 1417 1415 1412 1411 1409 1407 1406 1405 1404 1403 1403 1402 1401 1401 1400 1399 1399 1399 1399 1400 1401 1403 1404 1405 1406 1407 1408 1409 1410 1411 1412
1471 1465 1460 1456 1451 1445 1440 1435 1432 1428 1425 1421 1418 1415 1413 1410 1409 1407 1406 1404 1403 1403 1402 1402 1402 1401 1401 1400 1400 1400 1400 1401 1401 1402 1403 1404 1405 1405 1406 1407 1408 1409 1410
1471 1466 1461 1456 1451 1446 1442 1437 1434 1430 1426 1423 1420 1417 1414 1411 1409 1407 1405 1404 1403 1402 1401 1401 1402 1402 1401 1401 1401 1401 1401 1401 1401 1402 1403 1403 1404 1404 1405 1406 1407 1407 1408
1472 1466 1462 1457 1452 1447 1443 1439 1436 1432 1429 1425 1421 1418 1415 1412 1410 1408 1405 1403 1401 1401 1400 1400 1401 1401 1401 1401 1401 1401 1401 1401 1401 1402 1402 1402 1403 1403 1403 1404 1404 1405 1405
1472 1466 1461 1457 1452 1447 1443 1439 1435 1433 1429 1425 1421 1418 1415 1413 1409 1406 1404 1401 1400 1399 1399 1400 1400 1400 1401 1401 1401 1401 1401 1400 1400 1400 1400 1400 1401 1401 1401 1401 1401 1401 1401
1471 1466 1461 1456 1451 1446 1441 1437 1433 1430 1427 1423 1420 1417 1414 1411 1408 1406 1403 1401 1400 1398 1399 1399 1400 1400 1401 1401 1401 1400 1400 1399 1399 1399 1398 1398 1398 1397 1397 1397 1397 1397 1396
1470 1464 1459 1453 1448 1443 1439 1434 1431 1427 1423 1420 1418 1415 1413 1411 1408 1406 1404 1401 1400 1399 1399 1399 1399 1399 1399 1399 1399 1399 1398 1398 1397 1396 1396 1395 1395 1394 1393 1393 1393 1392 1391
1466 1460 1454 1449 1444 1439 1435 1430 1426 1423 1420 1418 1415 1413 1412 1410 1407 1405 1403 1401 1400 1400 1399 1399 1398 1398 1397 1397 1396 1396 1396 1395 1394 1393 1393 1392 1391 1390 1390 1389 1389 1388 1387
1460 1455 1450 1443 1438 1433 1428 1424 1420 1418 1415 1413 1411 1410 1409 1407 1406 1404 1403 1401 1400 1399 1398 1397 1396 1395 1394 1394 1393 1393 1392 1391 1391 1390 1389 1388 1387 1386 1385 1384 1384 1383 1382
1454 1447 1442 1436 1430 1425 1420 1416 1413 1410 1409 1407 1406 1405 1405 1405 1404 1403 1402 1400 1399 1398 1396 1395 1394 1392 1391 1390 1389 1388 1388 1387 1386 1385 1384 1383 1383 1382 1381 1380 1379 1378 1377
1449 1442 1435 1430 1423 1417 1413 1409 1406 1403 1401 1400 1399 1399 1399 1400 1399 1399 1399 1398 1397 1396 1395 1393 1391 1390 1388 1387 1385 1384 1383 1382 1381 1380 1379 1379 1378 1377 1376 1375 1374 1373 1372
1446 1439 1431 1424 1418 1412 1406 1402 1398 1395 1393 1392 1392 1392 1392 1393 1394 1395 1395 1395 1395 1394 1392 1390 1388 1387 1385 1383 1382 1381 1379 1378 1377 1376 1375 1374 1373 1372 1371 1369 1368 1367 1366
1444 1436 1428 1421 1414 1407 1401 1396 1391 1388 1386 1384 1384 1385 1386 1387 1389 1390 1391 1392 1392 1391 1390 1388 1386 1384 1382 1380 1378 1377 1376 1374 1373 1372 1371 1369 1367 1366 1365 1363 1362 1361 1360
1443 1435 1427 1420 1412 1404 1397 1390 1385 1381 1378 1377 1377 1378 1379 1381 1383 1386 1387 1388 1389 1388 1387 1385 1383 1381 1379 1377 1375 1373 1372 1370 1369 1367 1365 1363 1361 1359 1357 1356 1354 1353 1352
1444 1436 1428 1419 1411 1402 1394 1387 1380 1375 1372 1370 1371 1373 1375 1377 1379 1382 1384 1385 1385 1385 1384 1383 1381 1378 1376 1374 1372 1370 1368 1366 1364 1361 1359 1356 1354 1351 1349 1347 1346 1345 1344